Year,Month,Day,Hour,Minute,Value (Times are PST for temperature in C)
2023,10,28,00,00,-1.20
2023,10,28,00,01,-1.30
2023,10,28,00,02,-1.30
2023,10,28,00,03,-1.30
2023,10,28,00,04,-1.30
2023,10,28,00,05,-1.30
2023,10,28,00,06,-1.30
2023,10,28,00,07,-1.30
2023,10,28,00,08,-1.30
2023,10,28,00,09,-1.30
2023,10,28,00,10,-1.30
2023,10,28,00,11,-1.30
2023,10,28,00,12,-1.30
2023,10,28,00,13,-1.30
2023,10,28,00,14,-1.30
2023,10,28,00,15,-1.30
2023,10,28,00,16,-1.30
2023,10,28,00,17,-1.40
2023,10,28,00,18,-1.40
2023,10,28,00,19,-1.40
2023,10,28,00,20,-1.40
2023,10,28,00,21,-1.50
2023,10,28,00,22,-1.50
2023,10,28,00,23,-1.50
2023,10,28,00,24,-1.50
2023,10,28,00,25,-1.60
2023,10,28,00,26,-1.60
2023,10,28,00,27,-1.60
2023,10,28,00,28,-1.60
2023,10,28,00,29,-1.60
2023,10,28,00,30,-1.70
2023,10,28,00,31,-1.70
2023,10,28,00,32,-1.70
2023,10,28,00,33,-1.70
2023,10,28,00,34,-1.70
2023,10,28,00,35,-1.70
2023,10,28,00,36,-1.70
2023,10,28,00,37,-1.70
2023,10,28,00,38,-1.70
2023,10,28,00,39,-1.70
2023,10,28,00,40,-1.70
2023,10,28,00,41,-1.70
2023,10,28,00,42,-1.60
2023,10,28,00,43,-1.60
2023,10,28,00,44,-1.60
2023,10,28,00,45,-1.50
2023,10,28,00,46,-1.50
2023,10,28,00,47,-1.50
2023,10,28,00,48,-1.50
2023,10,28,00,49,-1.50
2023,10,28,00,50,-1.50
2023,10,28,00,51,-1.40
2023,10,28,00,52,-1.40
2023,10,28,00,53,-1.40
2023,10,28,00,54,-1.40
2023,10,28,00,55,-1.40
2023,10,28,00,56,-1.40
2023,10,28,00,57,-1.30
2023,10,28,00,58,-1.30
2023,10,28,00,59,-1.30
2023,10,28,01,00,-1.30
2023,10,28,01,01,-1.30
2023,10,28,01,02,-1.30
2023,10,28,01,03,-1.30
2023,10,28,01,04,-1.30
2023,10,28,01,05,-1.30
2023,10,28,01,06,-1.30
2023,10,28,01,07,-1.30
2023,10,28,01,08,-1.40
2023,10,28,01,09,-1.40
2023,10,28,01,10,-1.40
2023,10,28,01,11,-1.40
2023,10,28,01,12,-1.40
2023,10,28,01,13,-1.40
2023,10,28,01,14,-1.40
2023,10,28,01,15,-1.40
2023,10,28,01,16,-1.40
2023,10,28,01,17,-1.40
2023,10,28,01,18,-1.40
2023,10,28,01,19,-1.40
2023,10,28,01,20,-1.40
2023,10,28,01,21,-1.40
2023,10,28,01,22,-1.40
2023,10,28,01,23,-1.40
2023,10,28,01,24,-1.40
2023,10,28,01,25,-1.40
2023,10,28,01,26,-1.40
2023,10,28,01,27,-1.40
2023,10,28,01,28,-1.40
2023,10,28,01,29,-1.50
2023,10,28,01,30,-1.40
2023,10,28,01,31,-1.40
2023,10,28,01,32,-1.50
2023,10,28,01,33,-1.50
2023,10,28,01,34,-1.50
2023,10,28,01,35,-1.50
2023,10,28,01,36,-1.50
2023,10,28,01,37,-1.50
2023,10,28,01,38,-1.50
2023,10,28,01,39,-1.60
2023,10,28,01,40,-1.60
2023,10,28,01,41,-1.70
2023,10,28,01,42,-1.70
2023,10,28,01,43,-1.70
2023,10,28,01,44,-1.70
2023,10,28,01,45,-1.70
2023,10,28,01,46,-1.80
2023,10,28,01,47,-1.80
2023,10,28,01,48,-1.80
2023,10,28,01,49,-1.80
2023,10,28,01,50,-1.80
2023,10,28,01,51,-1.80
2023,10,28,01,52,-1.90
2023,10,28,01,53,-1.90
2023,10,28,01,54,-1.90
2023,10,28,01,55,-1.90
2023,10,28,01,56,-1.90
2023,10,28,01,57,-1.90
2023,10,28,01,58,-1.90
2023,10,28,01,59,-1.90
2023,10,28,02,00,-1.90
2023,10,28,02,01,-1.90
2023,10,28,02,02,-1.90
2023,10,28,02,03,-1.90
2023,10,28,02,04,-1.90
2023,10,28,02,05,-1.90
2023,10,28,02,06,-1.90
2023,10,28,02,07,-1.90
2023,10,28,02,08,-1.90
2023,10,28,02,09,-1.90
2023,10,28,02,10,-1.90
2023,10,28,02,11,-1.90
2023,10,28,02,12,-1.90
2023,10,28,02,13,-1.80
2023,10,28,02,14,-1.80
2023,10,28,02,15,-1.80
2023,10,28,02,16,-1.80
2023,10,28,02,17,-1.80
2023,10,28,02,18,-1.80
2023,10,28,02,19,-1.80
2023,10,28,02,20,-1.80
2023,10,28,02,21,-1.80
2023,10,28,02,22,-1.80
2023,10,28,02,23,-1.80
2023,10,28,02,24,-1.80
2023,10,28,02,25,-1.80
2023,10,28,02,26,-1.80
2023,10,28,02,27,-1.80
2023,10,28,02,28,-1.80
2023,10,28,02,29,-1.80
2023,10,28,02,30,-1.80
2023,10,28,02,31,-1.80
2023,10,28,02,32,-1.80
2023,10,28,02,33,-1.80
2023,10,28,02,34,-1.80
2023,10,28,02,35,-1.70
2023,10,28,02,36,-1.70
2023,10,28,02,37,-1.70
2023,10,28,02,38,-1.70
2023,10,28,02,39,-1.70
2023,10,28,02,40,-1.70
2023,10,28,02,41,-1.70
2023,10,28,02,42,-1.70
2023,10,28,02,43,-1.70
2023,10,28,02,44,-1.80
2023,10,28,02,45,-1.80
2023,10,28,02,46,-1.80
2023,10,28,02,47,-1.80
2023,10,28,02,48,-1.80
2023,10,28,02,49,-1.80
2023,10,28,02,50,-1.80
2023,10,28,02,51,-1.80
2023,10,28,02,52,-1.80
2023,10,28,02,53,-1.80
2023,10,28,02,54,-1.90
2023,10,28,02,55,-1.90
2023,10,28,02,56,-1.90
2023,10,28,02,57,-1.90
2023,10,28,02,58,-2.00
2023,10,28,02,59,-2.00
2023,10,28,03,00,-2.00
2023,10,28,03,01,-2.00
2023,10,28,03,02,-2.00
2023,10,28,03,03,-1.90
2023,10,28,03,04,-1.90
2023,10,28,03,05,-1.90
2023,10,28,03,06,-1.90
2023,10,28,03,07,-1.90
2023,10,28,03,08,-2.00
2023,10,28,03,09,-2.00
2023,10,28,03,10,-2.00
2023,10,28,03,11,-2.00
2023,10,28,03,12,-2.10
2023,10,28,03,13,-2.10
2023,10,28,03,14,-2.10
2023,10,28,03,15,-2.10
2023,10,28,03,16,-2.10
2023,10,28,03,17,-2.10
2023,10,28,03,18,-2.00
2023,10,28,03,19,-2.00
2023,10,28,03,20,-1.90
2023,10,28,03,21,-1.90
2023,10,28,03,22,-1.80
2023,10,28,03,23,-1.80
2023,10,28,03,24,-1.80
2023,10,28,03,25,-1.80
2023,10,28,03,26,-1.80
2023,10,28,03,27,-1.80
2023,10,28,03,28,-1.80
2023,10,28,03,29,-1.80
2023,10,28,03,30,-1.80
2023,10,28,03,31,-1.80
2023,10,28,03,32,-1.80
2023,10,28,03,33,-1.80
2023,10,28,03,34,-1.80
2023,10,28,03,35,-1.80
2023,10,28,03,36,-1.80
2023,10,28,03,37,-1.80
2023,10,28,03,38,-1.80
2023,10,28,03,39,-1.80
2023,10,28,03,40,-1.70
2023,10,28,03,41,-1.70
2023,10,28,03,42,-1.60
2023,10,28,03,43,-1.60
2023,10,28,03,44,-1.60
2023,10,28,03,45,-1.60
2023,10,28,03,46,-1.60
2023,10,28,03,47,-1.60
2023,10,28,03,48,-1.60
2023,10,28,03,49,-1.60
2023,10,28,03,50,-1.60
2023,10,28,03,51,-1.60
2023,10,28,03,52,-1.60
2023,10,28,03,53,-1.60
2023,10,28,03,54,-1.70
2023,10,28,03,55,-1.70
2023,10,28,03,56,-1.70
2023,10,28,03,57,-1.70
2023,10,28,03,58,-1.70
2023,10,28,03,59,-1.70
2023,10,28,04,00,-1.70
2023,10,28,04,01,-1.70
2023,10,28,04,02,-1.70
2023,10,28,04,03,-1.70
2023,10,28,04,04,-1.70
2023,10,28,04,05,-1.70
2023,10,28,04,06,-1.70
2023,10,28,04,07,-1.70
2023,10,28,04,08,-1.70
2023,10,28,04,09,-1.70
2023,10,28,04,10,-1.70
2023,10,28,04,11,-1.70
2023,10,28,04,12,-1.70
2023,10,28,04,13,-1.70
2023,10,28,04,14,-1.60
2023,10,28,04,15,-1.60
2023,10,28,04,16,-1.60
2023,10,28,04,17,-1.50
2023,10,28,04,18,-1.50
2023,10,28,04,19,-1.40
2023,10,28,04,20,-1.40
2023,10,28,04,21,-1.30
2023,10,28,04,22,-1.20
2023,10,28,04,23,-1.10
2023,10,28,04,24,-1.00
2023,10,28,04,25,-0.90
2023,10,28,04,26,-0.80
2023,10,28,04,27,-0.80
2023,10,28,04,28,-0.80
2023,10,28,04,29,-0.70
2023,10,28,04,30,-0.70
2023,10,28,04,31,-0.70
2023,10,28,04,32,-0.70
2023,10,28,04,33,-0.70
2023,10,28,04,34,-0.70
2023,10,28,04,35,-0.60
2023,10,28,04,36,-0.60
2023,10,28,04,37,-0.50
2023,10,28,04,38,-0.50
2023,10,28,04,39,-0.50
2023,10,28,04,40,-0.50
2023,10,28,04,41,-0.60
2023,10,28,04,42,-0.60
2023,10,28,04,43,-0.70
2023,10,28,04,44,-0.80
2023,10,28,04,45,-0.90
2023,10,28,04,46,-1.00
2023,10,28,04,47,-1.00
2023,10,28,04,48,-1.10
2023,10,28,04,49,-1.20
2023,10,28,04,50,-1.20
2023,10,28,04,51,-1.30
2023,10,28,04,52,-1.30
2023,10,28,04,53,-1.40
2023,10,28,04,54,-1.40
2023,10,28,04,55,-1.40
2023,10,28,04,56,-1.50
2023,10,28,04,57,-1.50
2023,10,28,04,58,-1.50
2023,10,28,04,59,-1.60
2023,10,28,05,00,-1.60
2023,10,28,05,01,-1.60
2023,10,28,05,02,-1.60
2023,10,28,05,03,-1.60
2023,10,28,05,04,-1.60
2023,10,28,05,05,-1.60
2023,10,28,05,06,-1.60
2023,10,28,05,07,-1.60
2023,10,28,05,08,-1.60
2023,10,28,05,09,-1.60
2023,10,28,05,10,-1.60
2023,10,28,10,50,6.10
2023,10,28,10,51,6.10
2023,10,28,10,52,6.10
2023,10,28,10,53,6.20
2023,10,28,10,54,6.20
2023,10,28,10,55,6.20
2023,10,28,10,56,6.20
2023,10,28,10,57,6.20
2023,10,28,10,58,6.20
2023,10,28,10,59,6.20
2023,10,28,11,00,6.20
2023,10,28,11,01,6.20
2023,10,28,11,02,6.20
2023,10,28,11,03,6.30
2023,10,28,11,04,6.30
2023,10,28,11,05,6.30
2023,10,28,11,06,6.30
2023,10,28,11,07,6.30
2023,10,28,11,08,6.30
2023,10,28,11,09,6.40
2023,10,28,11,10,6.40
2023,10,28,11,11,6.40
2023,10,28,11,12,6.40
2023,10,28,11,13,6.50
2023,10,28,11,14,6.50
2023,10,28,11,15,6.50
2023,10,28,11,16,6.60
2023,10,28,11,17,6.60
2023,10,28,11,18,6.60
2023,10,28,11,19,6.60
2023,10,28,11,20,6.60
2023,10,28,11,21,6.60
2023,10,28,11,22,6.70
2023,10,28,11,23,6.70
2023,10,28,11,24,6.70
2023,10,28,11,25,6.70
2023,10,28,11,26,6.80
2023,10,28,11,27,6.80
2023,10,28,11,28,6.80
2023,10,28,11,29,6.80
2023,10,28,11,30,6.90
2023,10,28,11,31,6.90
2023,10,28,11,32,6.90
2023,10,28,11,33,6.90
2023,10,28,11,34,7.00
2023,10,28,11,35,7.00
2023,10,28,11,36,7.00
2023,10,28,11,37,7.00
2023,10,28,11,38,7.00
2023,10,28,11,39,7.00
2023,10,28,11,40,7.10
2023,10,28,11,41,7.10
2023,10,28,11,42,7.10
2023,10,28,11,43,7.10
2023,10,28,11,44,7.10
2023,10,28,11,45,7.20
2023,10,28,11,46,7.20
2023,10,28,11,47,7.30
2023,10,28,11,48,7.30
2023,10,28,11,49,7.30
2023,10,28,11,50,7.40
2023,10,28,11,51,7.40
2023,10,28,11,52,7.40
2023,10,28,11,53,7.50
2023,10,28,11,54,7.50
2023,10,28,11,55,7.50
2023,10,28,11,56,7.50
2023,10,28,11,57,7.60
2023,10,28,11,58,7.60
2023,10,28,11,59,7.60
2023,10,28,12,00,7.60
2023,10,28,12,01,7.60
2023,10,28,12,02,7.60
2023,10,28,12,03,7.60
2023,10,28,12,04,7.60
2023,10,28,12,05,7.60
2023,10,28,12,06,7.60
2023,10,28,12,07,7.70
2023,10,28,12,08,7.70
2023,10,28,12,09,7.70
2023,10,28,12,10,7.70
2023,10,28,12,11,7.70
2023,10,28,12,12,7.70
2023,10,28,12,13,7.70
2023,10,28,12,14,7.80
2023,10,28,12,15,7.80
2023,10,28,12,16,7.80
2023,10,28,12,17,7.80
2023,10,28,12,18,7.80
2023,10,28,12,19,7.80
2023,10,28,12,20,7.80
2023,10,28,12,21,7.80
2023,10,28,12,22,7.80
2023,10,28,12,23,7.80
2023,10,28,12,24,7.80
2023,10,28,12,25,7.80
2023,10,28,12,26,7.80
2023,10,28,12,27,7.90
2023,10,28,12,28,7.90
2023,10,28,12,29,7.90
2023,10,28,12,30,8.00
2023,10,28,12,31,8.00
2023,10,28,12,32,8.10
2023,10,28,12,33,8.10
2023,10,28,12,34,8.10
2023,10,28,12,35,8.10
2023,10,28,12,36,8.00
2023,10,28,12,37,8.00
2023,10,28,12,38,8.00
2023,10,28,12,39,7.90
2023,10,28,12,40,7.90
2023,10,28,12,41,7.90
2023,10,28,12,42,7.90
2023,10,28,12,43,7.90
2023,10,28,12,44,7.80
2023,10,28,12,45,7.80
2023,10,28,12,46,7.80
2023,10,28,12,47,7.70
2023,10,28,12,48,7.70
2023,10,28,12,49,7.70
2023,10,28,12,50,7.70
2023,10,28,12,51,7.70
2023,10,28,12,52,7.70
2023,10,28,12,53,7.70
2023,10,28,12,54,7.70
2023,10,28,12,55,7.80
2023,10,28,12,56,7.80
2023,10,28,12,57,7.70
2023,10,28,12,58,7.70
2023,10,28,12,59,7.70
2023,10,28,13,00,7.70
2023,10,28,13,01,7.80
2023,10,28,13,02,7.80
2023,10,28,13,03,7.80
2023,10,28,13,04,7.90
2023,10,28,13,05,7.90
2023,10,28,13,06,8.00
2023,10,28,13,07,8.10
2023,10,28,13,08,8.10
2023,10,28,13,09,8.10
2023,10,28,13,10,8.10
2023,10,28,13,11,8.10
2023,10,28,13,12,8.10
2023,10,28,13,13,8.10
2023,10,28,13,14,8.10
2023,10,28,13,15,8.10
2023,10,28,13,16,8.10
2023,10,28,13,17,8.10
2023,10,28,13,18,8.10
2023,10,28,13,19,8.20
2023,10,28,13,20,8.20
2023,10,28,13,21,8.20
2023,10,28,13,22,8.20
2023,10,28,13,23,8.20
2023,10,28,13,24,8.20
2023,10,28,13,25,8.20
2023,10,28,13,26,8.30
2023,10,28,13,27,8.30
2023,10,28,13,28,8.20
2023,10,28,13,29,8.20
2023,10,28,13,30,8.20
2023,10,28,13,31,8.20
2023,10,28,13,32,8.20
2023,10,28,13,33,8.20
2023,10,28,13,34,8.20
2023,10,28,13,35,8.20
2023,10,28,13,36,8.10
2023,10,28,13,37,8.10
2023,10,28,13,38,8.10
2023,10,28,13,39,8.10
2023,10,28,13,40,8.10
2023,10,28,13,41,8.10
2023,10,28,13,42,8.10
2023,10,28,13,43,8.10
2023,10,28,13,44,8.10
2023,10,28,13,45,8.10
2023,10,28,13,46,8.10
2023,10,28,13,47,8.10
2023,10,28,13,48,8.10
2023,10,28,13,49,8.10
2023,10,28,13,50,8.10
2023,10,28,13,51,8.10
2023,10,28,13,52,8.20
2023,10,28,13,53,8.20
2023,10,28,13,54,8.20
2023,10,28,13,55,8.20
2023,10,28,13,56,8.20
2023,10,28,13,57,8.20
2023,10,28,13,58,8.20
2023,10,28,13,59,8.20
2023,10,28,14,00,8.20
2023,10,28,14,01,8.30
2023,10,28,14,02,8.30
2023,10,28,14,03,8.30
2023,10,28,14,04,8.40
2023,10,28,14,05,8.40
2023,10,28,14,06,8.50
2023,10,28,14,07,8.50
2023,10,28,14,08,8.50
2023,10,28,14,09,8.60
2023,10,28,14,10,8.60
2023,10,28,14,11,8.60
2023,10,28,14,12,8.60
2023,10,28,14,13,8.60
2023,10,28,14,14,8.60
2023,10,28,14,15,8.60
2023,10,28,14,16,8.60
2023,10,28,14,17,8.70
2023,10,28,14,18,8.70
2023,10,28,14,19,8.70
2023,10,28,14,20,8.70
2023,10,28,14,21,8.70
2023,10,28,14,22,8.80
2023,10,28,14,23,8.80
2023,10,28,14,24,8.80
2023,10,28,14,25,8.90
2023,10,28,14,26,8.90
2023,10,28,14,27,8.90
2023,10,28,14,28,8.90
2023,10,28,14,29,8.90
2023,10,28,14,30,8.80
2023,10,28,14,31,8.80
2023,10,28,14,32,8.80
2023,10,28,14,33,8.80
2023,10,28,14,34,8.80
2023,10,28,14,35,8.80
2023,10,28,14,36,8.80
2023,10,28,14,37,8.80
2023,10,28,14,38,8.80
2023,10,28,14,39,8.90
2023,10,28,14,40,8.90
2023,10,28,14,41,8.90
2023,10,28,14,42,8.90
2023,10,28,14,43,9.00
2023,10,28,14,44,9.00
2023,10,28,14,45,9.10
2023,10,28,14,46,9.10
2023,10,28,14,47,9.10
2023,10,28,14,48,9.10
2023,10,28,14,49,9.10
2023,10,28,14,50,9.10
2023,10,28,14,51,9.10
2023,10,28,14,52,9.10
2023,10,28,14,53,9.10
2023,10,28,14,54,9.10
2023,10,28,14,55,9.10
2023,10,28,14,56,9.10
2023,10,28,14,57,9.10
2023,10,28,14,58,9.10
2023,10,28,14,59,9.10
2023,10,28,15,00,9.20
2023,10,28,15,01,9.20
2023,10,28,15,02,9.20
2023,10,28,15,03,9.20
2023,10,28,15,04,9.20
2023,10,28,15,05,9.20
2023,10,28,15,06,9.20
2023,10,28,15,07,9.20
2023,10,28,15,08,9.20
2023,10,28,15,09,9.20
2023,10,28,15,10,9.20
2023,10,28,15,11,9.20
2023,10,28,15,12,9.20
2023,10,28,15,13,9.20
2023,10,28,15,14,9.20
2023,10,28,15,15,9.20
2023,10,28,15,16,9.20
2023,10,28,15,17,9.20
2023,10,28,15,18,9.20
2023,10,28,15,19,9.20
2023,10,28,15,20,9.20
2023,10,28,15,21,9.20
2023,10,28,15,22,9.30
2023,10,28,15,23,9.30
2023,10,28,15,24,9.30
2023,10,28,15,25,9.30
2023,10,28,15,26,9.20
2023,10,28,15,27,9.20
2023,10,28,15,28,9.20
2023,10,28,15,29,9.10
2023,10,28,15,30,9.10
2023,10,28,15,31,9.10
2023,10,28,15,32,9.10
2023,10,28,15,33,9.10
2023,10,28,15,34,9.10
2023,10,28,15,35,9.10
2023,10,28,15,36,9.10
2023,10,28,15,37,9.10
2023,10,28,15,38,9.10
2023,10,28,15,39,9.10
2023,10,28,15,40,9.10
2023,10,28,15,41,9.10
2023,10,28,15,42,9.10
2023,10,28,15,43,9.10
2023,10,28,15,44,9.10
2023,10,28,15,45,9.20
2023,10,28,15,46,9.20
2023,10,28,15,47,9.20
2023,10,28,15,48,9.10
2023,10,28,15,49,9.10
2023,10,28,15,50,9.00
2023,10,28,15,51,9.00
2023,10,28,15,52,9.00
2023,10,28,15,53,9.00
2023,10,28,15,54,9.00
2023,10,28,15,55,9.00
2023,10,28,15,56,9.00
2023,10,28,15,57,9.00
2023,10,28,15,58,9.10
2023,10,28,15,59,9.10
2023,10,28,16,00,9.10
2023,10,28,16,01,9.10
2023,10,28,16,02,9.10
2023,10,28,16,03,9.10
2023,10,28,16,04,9.10
2023,10,28,16,05,9.10
2023,10,28,16,06,9.10
2023,10,28,16,07,9.20
2023,10,28,16,08,9.20
2023,10,28,16,09,9.20
2023,10,28,16,10,9.20
2023,10,28,16,11,9.10
2023,10,28,16,12,9.10
2023,10,28,16,13,9.10
2023,10,28,16,14,9.10
2023,10,28,16,15,9.10
2023,10,28,16,16,9.00
2023,10,28,16,17,9.00
2023,10,28,16,18,9.00
2023,10,28,16,19,9.00
2023,10,28,16,20,9.00
2023,10,28,16,21,9.00
2023,10,28,16,22,9.00
2023,10,28,16,23,9.10
2023,10,28,16,24,9.10
2023,10,28,16,25,9.10
2023,10,28,16,26,9.10
2023,10,28,16,27,9.00
2023,10,28,16,28,9.00
2023,10,28,16,29,9.00
2023,10,28,16,30,9.00
2023,10,28,16,31,9.00
2023,10,28,16,32,8.90
2023,10,28,16,33,8.90
2023,10,28,16,34,8.90
2023,10,28,16,35,8.90
2023,10,28,16,36,8.90
2023,10,28,16,37,8.80
2023,10,28,16,38,8.80
2023,10,28,16,39,8.80
2023,10,28,16,40,8.70
2023,10,28,16,41,8.70
2023,10,28,16,42,8.70
2023,10,28,16,43,8.70
2023,10,28,16,44,8.70
2023,10,28,16,45,8.70
2023,10,28,16,46,8.70
2023,10,28,16,47,8.70
2023,10,28,16,48,8.70
2023,10,28,16,49,8.70
2023,10,28,16,50,8.70
2023,10,28,16,51,8.70
2023,10,28,16,52,8.70
2023,10,28,16,53,8.70
2023,10,28,16,54,8.70
2023,10,28,16,55,8.70
2023,10,28,16,56,8.70
2023,10,28,16,57,8.60
2023,10,28,16,58,8.60
2023,10,28,16,59,8.60
2023,10,28,17,00,8.60
2023,10,28,17,01,8.50
2023,10,28,17,02,8.50
2023,10,28,17,03,8.50
2023,10,28,17,04,8.40
2023,10,28,17,05,8.40
2023,10,28,17,06,8.40
2023,10,28,17,07,8.40
2023,10,28,17,08,8.40
2023,10,28,17,09,8.40
2023,10,28,17,10,8.40
2023,10,28,17,11,8.40
2023,10,28,17,12,8.40
2023,10,28,17,13,8.40
2023,10,28,17,14,8.40
2023,10,28,17,15,8.40
2023,10,28,17,16,8.30
2023,10,28,17,17,8.30
2023,10,28,17,18,8.30
2023,10,28,17,19,8.30
2023,10,28,17,20,8.30
2023,10,28,17,21,8.30
2023,10,28,17,22,8.30
2023,10,28,17,23,8.30
2023,10,28,17,24,8.30
2023,10,28,17,25,8.30
2023,10,28,17,26,8.30
2023,10,28,17,27,8.30
2023,10,28,17,28,8.30
2023,10,28,17,29,8.30
2023,10,28,17,30,8.30
2023,10,28,17,31,8.30
2023,10,28,17,32,8.20
2023,10,28,17,33,8.20
2023,10,28,17,34,8.20
2023,10,28,17,35,8.10
2023,10,28,17,36,8.10
2023,10,28,17,37,8.10
2023,10,28,17,38,8.10
2023,10,28,17,39,8.00
2023,10,28,17,40,8.00
2023,10,28,17,41,8.00
2023,10,28,17,42,7.90
2023,10,28,17,43,7.90
2023,10,28,17,44,7.90
2023,10,28,17,45,7.90
2023,10,28,17,46,7.80
2023,10,28,17,47,7.80
2023,10,28,17,48,7.80
2023,10,28,17,49,7.70
2023,10,28,17,50,7.70
2023,10,28,17,51,7.70
2023,10,28,17,52,7.60
2023,10,28,17,53,7.60
2023,10,28,17,54,7.50
2023,10,28,17,55,7.50
2023,10,28,17,56,7.40
2023,10,28,17,57,7.40
2023,10,28,17,58,7.40
2023,10,28,17,59,7.30
2023,10,28,18,00,7.30
2023,10,28,18,01,7.30
2023,10,28,18,02,7.20
2023,10,28,18,03,7.20
2023,10,28,18,04,7.20
2023,10,28,18,05,7.20
2023,10,28,18,06,7.10
2023,10,28,18,07,7.10
2023,10,28,18,08,7.10
2023,10,28,18,09,7.00
2023,10,28,18,10,7.00
2023,10,28,18,11,6.90
2023,10,28,18,12,6.90
2023,10,28,18,13,6.90
2023,10,28,18,14,6.80
2023,10,28,18,15,6.80
2023,10,28,18,16,6.80
2023,10,28,18,17,6.70
2023,10,28,18,18,6.70
2023,10,28,18,19,6.70
2023,10,28,18,20,6.60
2023,10,28,18,21,6.60
2023,10,28,18,22,6.50
2023,10,28,18,23,6.50
2023,10,28,18,24,6.40
2023,10,28,18,25,6.40
2023,10,28,18,26,6.30
2023,10,28,18,27,6.30
2023,10,28,18,28,6.30
2023,10,28,18,29,6.20
2023,10,28,18,30,6.20
2023,10,28,18,31,6.20
2023,10,28,18,32,6.10
2023,10,28,18,33,6.10
2023,10,28,18,34,6.10
2023,10,28,18,35,6.00
2023,10,28,18,36,6.00
2023,10,28,18,37,6.00
2023,10,28,18,38,5.90
2023,10,28,18,39,5.90
2023,10,28,18,40,5.90
2023,10,28,18,41,5.90
2023,10,28,18,42,5.90
2023,10,28,18,43,5.90
2023,10,28,18,44,5.90
2023,10,28,18,45,5.90
2023,10,28,18,46,5.90
2023,10,28,18,47,5.90
2023,10,28,18,48,5.90
2023,10,28,18,49,5.80
2023,10,28,18,50,5.80
2023,10,28,18,51,5.80
2023,10,28,18,52,5.80
2023,10,28,18,53,5.80
2023,10,28,18,54,5.70
2023,10,28,18,55,5.70
2023,10,28,18,56,5.60
2023,10,28,18,57,5.60
2023,10,28,18,58,5.50
2023,10,28,18,59,5.40
2023,10,28,19,00,5.40
2023,10,28,19,01,5.30
2023,10,28,19,02,5.30
2023,10,28,19,03,5.20
2023,10,28,19,04,5.10
2023,10,28,19,05,5.10
2023,10,28,19,06,5.00
2023,10,28,19,07,5.00
2023,10,28,19,08,5.00
2023,10,28,19,09,4.90
2023,10,28,19,10,4.90
2023,10,28,19,11,4.80
2023,10,28,19,12,4.80
2023,10,28,19,13,4.70
2023,10,28,19,14,4.70
2023,10,28,19,15,4.70
2023,10,28,19,16,4.60
2023,10,28,19,17,4.60
2023,10,28,19,18,4.50
2023,10,28,19,19,4.50
2023,10,28,19,20,4.40
2023,10,28,19,21,4.40
2023,10,28,19,22,4.40
2023,10,28,19,23,4.30
2023,10,28,19,24,4.30
2023,10,28,19,25,4.30
2023,10,28,19,26,4.20
2023,10,28,19,27,4.20
2023,10,28,19,28,4.20
2023,10,28,19,29,4.20
2023,10,28,19,30,4.10
2023,10,28,19,31,4.10
2023,10,28,19,32,4.10
2023,10,28,19,33,4.00
2023,10,28,19,34,4.00
2023,10,28,19,35,4.00
2023,10,28,19,36,3.90
2023,10,28,19,37,3.90
2023,10,28,19,38,3.90
2023,10,28,19,39,3.80
2023,10,28,19,40,3.80
2023,10,28,19,41,3.80
2023,10,28,19,42,3.80
2023,10,28,19,43,3.70
2023,10,28,19,44,3.70
2023,10,28,19,45,3.70
2023,10,28,19,46,3.60
2023,10,28,19,47,3.60
2023,10,28,19,48,3.50
2023,10,28,19,49,3.40
2023,10,28,19,50,3.40
2023,10,28,19,51,3.30
2023,10,28,19,52,3.20
2023,10,28,19,53,3.20
2023,10,28,19,54,3.10
2023,10,28,19,55,3.10
2023,10,28,19,56,3.10
2023,10,28,19,57,3.10
2023,10,28,19,58,3.10
2023,10,28,19,59,3.10
2023,10,28,20,00,3.10
2023,10,28,20,01,3.10
2023,10,28,20,02,3.00
2023,10,28,20,03,3.00
2023,10,28,20,04,3.00
2023,10,28,20,05,2.90
2023,10,28,20,06,2.90
2023,10,28,20,07,2.80
2023,10,28,20,08,2.80
2023,10,28,20,09,2.80
2023,10,28,20,10,2.70
2023,10,28,20,11,2.70
2023,10,28,20,12,2.70
2023,10,28,20,13,2.70
2023,10,28,20,14,2.70
2023,10,28,20,15,2.70
2023,10,28,20,16,2.70
2023,10,28,20,17,2.70
2023,10,28,20,18,2.60
2023,10,28,20,19,2.60
2023,10,28,20,20,2.60
2023,10,28,20,21,2.60
2023,10,28,20,22,2.60
2023,10,28,20,23,2.60
2023,10,28,20,24,2.60
2023,10,28,20,25,2.60
2023,10,28,20,26,2.60
2023,10,28,20,27,2.60
2023,10,28,20,28,2.50
2023,10,28,20,29,2.50
2023,10,28,20,30,2.50
2023,10,28,20,31,2.40
2023,10,28,20,32,2.40
2023,10,28,20,33,2.40
2023,10,28,20,34,2.30
2023,10,28,20,35,2.30
2023,10,28,20,36,2.20
2023,10,28,20,37,2.20
2023,10,28,20,38,2.10
2023,10,28,20,39,2.10
2023,10,28,20,40,2.10
2023,10,28,20,41,2.00
2023,10,28,20,42,2.00
2023,10,28,20,43,2.00
2023,10,28,20,44,1.90
2023,10,28,20,45,1.90
2023,10,28,20,46,2.00
2023,10,28,20,47,2.00
2023,10,28,20,48,2.00
2023,10,28,20,49,2.00
2023,10,28,20,50,2.00
2023,10,28,20,51,2.00
2023,10,28,20,52,2.00
2023,10,28,20,53,2.00
2023,10,28,20,54,1.90
2023,10,28,20,55,1.90
2023,10,28,20,56,1.90
2023,10,28,20,57,1.90
2023,10,28,20,58,1.90
2023,10,28,20,59,1.90
2023,10,28,21,00,1.90
2023,10,28,21,01,1.90
2023,10,28,21,02,1.90
2023,10,28,21,03,1.80
2023,10,28,21,04,1.80
2023,10,28,21,05,1.80
2023,10,28,21,06,1.80
2023,10,28,21,07,1.80
2023,10,28,21,08,1.70
2023,10,28,21,09,1.70
2023,10,28,21,10,1.70
2023,10,28,21,11,1.70
2023,10,28,21,12,1.70
2023,10,28,21,13,1.60
2023,10,28,21,14,1.60
2023,10,28,21,15,1.50
2023,10,28,21,16,1.50
2023,10,28,21,17,1.40
2023,10,28,21,18,1.40
2023,10,28,21,19,1.40
2023,10,28,21,20,1.30
2023,10,28,21,21,1.30
2023,10,28,21,22,1.30
2023,10,28,21,23,1.30
2023,10,28,21,24,1.30
2023,10,28,21,25,1.20
2023,10,28,21,26,1.20
2023,10,28,21,27,1.20
2023,10,28,21,28,1.20
2023,10,28,21,29,1.20
2023,10,28,21,30,1.20
2023,10,28,21,31,1.10
2023,10,28,21,32,1.10
2023,10,28,21,33,1.10
2023,10,28,21,34,1.00
2023,10,28,21,35,1.00
2023,10,28,21,36,1.00
2023,10,28,21,37,1.00
2023,10,28,21,38,1.00
2023,10,28,21,39,1.00
2023,10,28,21,40,1.00
2023,10,28,21,41,1.00
2023,10,28,21,42,1.00
2023,10,28,21,43,1.00
2023,10,28,21,44,1.00
2023,10,28,21,45,1.00
2023,10,28,21,46,1.00
2023,10,28,21,47,1.00
2023,10,28,21,48,1.10
2023,10,28,21,49,1.10
2023,10,28,21,50,1.10
2023,10,28,21,51,1.10
2023,10,28,21,52,1.10
2023,10,28,21,53,1.00
2023,10,28,21,54,1.00
2023,10,28,21,55,0.90
2023,10,28,21,56,0.90
2023,10,28,21,57,0.80
2023,10,28,21,58,0.80
2023,10,28,21,59,0.80
2023,10,28,22,00,0.70
2023,10,28,22,01,0.70
2023,10,28,22,02,0.70
2023,10,28,22,03,0.60
2023,10,28,22,04,0.60
2023,10,28,22,05,0.60
2023,10,28,22,06,0.60
2023,10,28,22,07,0.60
2023,10,28,22,08,0.50
2023,10,28,22,09,0.50
2023,10,28,22,10,0.50
2023,10,28,22,11,0.50
2023,10,28,22,12,0.50
2023,10,28,22,13,0.50
2023,10,28,22,14,0.50
2023,10,28,22,15,0.50
2023,10,28,22,16,0.50
2023,10,28,22,17,0.50
2023,10,28,22,18,0.50
2023,10,28,22,19,0.50
2023,10,28,22,20,0.50
2023,10,28,22,21,0.50
2023,10,28,22,22,0.50
2023,10,28,22,23,0.50
2023,10,28,22,24,0.40
2023,10,28,22,25,0.40
2023,10,28,22,26,0.40
2023,10,28,22,27,0.40
2023,10,28,22,28,0.40
2023,10,28,22,29,0.40
2023,10,28,22,30,0.30
2023,10,28,22,31,0.30
2023,10,28,22,32,0.30
2023,10,28,22,33,0.30
2023,10,28,22,34,0.30
2023,10,28,22,35,0.30
2023,10,28,22,36,0.20
2023,10,28,22,37,0.20
2023,10,28,22,38,0.20
2023,10,28,22,39,0.20
2023,10,28,22,40,0.10
2023,10,28,22,41,0.10
2023,10,28,22,42,0.10
2023,10,28,22,43,0.10
2023,10,28,22,44,0.10
2023,10,28,22,45,0.10
2023,10,28,22,46,0.10
2023,10,28,22,47,0.10
2023,10,28,22,48,0.10
2023,10,28,22,49,0.10
2023,10,28,22,50,0.10
2023,10,28,22,51,0.10
2023,10,28,22,52,0.10
2023,10,28,22,53,0.10
2023,10,28,22,54,0.10
2023,10,28,22,55,0.10
2023,10,28,22,56,0.10
2023,10,28,22,57,0.10
2023,10,28,22,58,0.10
2023,10,28,22,59,0.00
2023,10,28,23,00,0.00
2023,10,28,23,01,0.00
2023,10,28,23,02,-0.10
2023,10,28,23,03,-0.10
2023,10,28,23,04,-0.10
2023,10,28,23,05,-0.20
2023,10,28,23,06,-0.20
2023,10,28,23,07,-0.20
2023,10,28,23,08,-0.20
2023,10,28,23,09,-0.20
2023,10,28,23,10,-0.20
2023,10,28,23,11,-0.20
2023,10,28,23,12,-0.30
2023,10,28,23,13,-0.30
2023,10,28,23,14,-0.30
2023,10,28,23,15,-0.30
2023,10,28,23,16,-0.30
2023,10,28,23,17,-0.30
2023,10,28,23,18,-0.30
2023,10,28,23,19,-0.30
2023,10,28,23,20,-0.40
2023,10,28,23,21,-0.40
2023,10,28,23,22,-0.40
2023,10,28,23,23,-0.40
2023,10,28,23,24,-0.40
2023,10,28,23,25,-0.40
2023,10,28,23,26,-0.40
2023,10,28,23,27,-0.40
2023,10,28,23,28,-0.40
2023,10,28,23,29,-0.40
2023,10,28,23,30,-0.40